ALESUND/VIGRA current weather conditions

sailwx.info

Wind from 190 at 13 knots

Air temperature 5.0° C
Visibility: greater than 5.4 NM
Dewpoint 1.0° C

Last reported at 2017-Feb-22 05:20 UTC.
Time now 2017-Feb-22 06:39 UTC

Location: N 62°34' E 006°07'.
View on Google Maps.

See reports from other nearby stations

  
Tides and Currents Weather Stations Pressure Air Temp Water Temp Dewpoint Dewpoint Depression Visibility Wind Speed Wind Dir Waves Ship Positions
date/time (UTC)wind fromknots sea level pressurealtimeterstation pressurevisibilityair tempwater tempwave heightnotes
2017-Feb-22 05:20 190 13 5.4 5.0
2017-Feb-22 04:50 190 14 5.4 5.0
2017-Feb-22 04:20 190 12 5.4 5.0
2017-Feb-22 03:50 180 11 5.4 4.0
2017-Feb-22 03:20 190 13 5.4 4.0 Drizzle.
2017-Feb-22 02:50 190 13 5.4 4.0
2017-Feb-22 02:20 180 13 5.4 4.0
2017-Feb-22 01:50 210 13 5.4 4.0 Light rain.
2017-Feb-22 01:20 200 12 5.4 5.0 Light rain.
2017-Feb-22 00:50 180 8 5.4 5.0 Light rain.
2017-Feb-22 00:20 170 9 5.4 5.0 Light drizzle.
2017-Feb-21 23:50 190 11 5.4 5.0 Light rain.
2017-Feb-21 23:20 160 12 5.4 6.0
2017-Feb-21 22:50 150 12 5.4 6.0
2017-Feb-21 22:20 150 14 5.4 6.0
2017-Feb-21 21:50 140 13 5.4 6.0
2017-Feb-21 21:20 130 13 5.4 5.0
2017-Feb-21 20:50 140 14 5.4 5.0
2017-Feb-21 20:20 150 15 5.4 5.0
2017-Feb-21 19:50 130 11 5.4 4.0
2017-Feb-21 19:20 180 7 5.4 5.0
2017-Feb-21 18:50 200 6 5.4 5.0
2017-Feb-21 18:20 190 6 5.4 4.0
2017-Feb-21 17:50 190 8 5.4 4.0
2017-Feb-21 17:20 180 6 5.4 4.0
2017-Feb-21 16:50 210 7 5.4 4.0
2017-Feb-21 16:20 220 13 5.4 4.0
2017-Feb-21 15:50 220 14 5.4 4.0
2017-Feb-21 15:20 230 12 5.4 4.0
2017-Feb-21 14:50 230 12 5.4 4.0 Showers in the vicinity.
2017-Feb-21 14:20 250 11 5.4 5.0 Light rain showers.
2017-Feb-21 13:50 250 11 5.4 5.0
2017-Feb-21 13:20 240 13 5.4 4.0
2017-Feb-21 12:50 230 13 5.4 5.0
2017-Feb-21 12:20 260 8 5.4 5.0
2017-Feb-21 11:50 270 8 5.4 5.0
2017-Feb-21 11:20 260 7 5.4 5.0
2017-Feb-21 10:50 260 5 5.4 4.0 Showers in the vicinity.
2017-Feb-21 10:20 220 11 5.4 5.0 Showers in the vicinity.
2017-Feb-21 09:50 220 13 5.4 4.0
2017-Feb-21 09:20 220 13 5.4 4.0 Showers in the vicinity.
2017-Feb-21 08:50 230 12 5.4 4.0 Showers in the vicinity.
2017-Feb-21 08:20 240 8 5.4 4.0 Showers in the vicinity.
2017-Feb-21 07:50 5.4 3.0 Showers in the vicinity.
2017-Feb-21 07:20 270 9 5.4 3.0 Light rain showers.
2017-Feb-21 06:50 250 7 5.4 3.0 Showers in the vicinity.
2017-Feb-21 06:20 250 8 5.4 3.0
2017-Feb-21 05:50 270 8 5.4 4.0
2017-Feb-21 05:20 260 8 5.4 4.0 Light rain drizzle.
2017-Feb-21 04:50 280 11 5.4 4.0 Light rain drizzle.
2017-Feb-21 04:20 270 8 5.4 4.0 Light drizzle.
2017-Feb-21 03:50 270 8 5.4 3.0
2017-Feb-21 03:20 260 11 4.9 3.0 Light rain.
2017-Feb-21 02:50 250 9 5.4 3.0
2017-Feb-21 02:20 260 8 5.4 4.0 Light rain.
2017-Feb-21 01:50 260 6 5.4 3.0 Drizzle.
2017-Feb-21 01:20 270 6 3.2 3.0 Light rain.
2017-Feb-21 00:50 280 6 5.4 3.0 Light rain.
2017-Feb-21 00:20 300 6 5.4 3.0 Light rain.
2017-Feb-20 23:50 310 6 3.2 3.0 Mist.
2017-Feb-20 23:20 270 2 2.7 3.0
2017-Feb-20 22:50 280 4 2.7 3.0 Drizzle.
2017-Feb-20 22:20 250 4 2.3 3.0 Drizzle.
2017-Feb-20 21:50 250 6 5.4 3.0 Light rain.
2017-Feb-20 21:20 260 4 5.4 4.0 Light rain.
2017-Feb-20 20:50 5.4 4.0 Light rain.
2017-Feb-20 20:20 300 4 5.4 4.0 Light rain.
2017-Feb-20 19:50 230 4 5.4 4.0 Drizzle.
2017-Feb-20 19:20 270 2 5.4 4.0
2017-Feb-20 18:50 310 2 5.4 4.0
2017-Feb-20 18:20 5.4 4.0
2017-Feb-20 17:50 270 2 5.4 4.0
2017-Feb-20 17:20 300 5 5.4 5.0
2017-Feb-20 16:50 290 4 5.4 5.0
2017-Feb-20 16:20 270 6 5.4 5.0
2017-Feb-20 15:50 280 7 5.4 5.0
2017-Feb-20 15:20 260 6 5.4 5.0
2017-Feb-20 14:50 250 6 5.4 5.0 Light rain showers.
2017-Feb-20 14:20 260 7 4.9 5.0 Showers in the vicinity.
2017-Feb-20 13:50 250 4 5.4 6.0 Light drizzle.
2017-Feb-20 13:20 270 5 5.4 5.0 Light drizzle.
2017-Feb-20 12:50 280 6 4.3 5.0 Light rain drizzle.
2017-Feb-20 12:20 300 7 2.7 5.0 Drizzle rain. Mist.
2017-Feb-20 11:50 270 6 2.7 6.0 Drizzle rain. Mist.
2017-Feb-20 11:20 270 7 5.4 6.0
2017-Feb-20 10:50 270 8 5.4 6.0
2017-Feb-20 10:20 260 12 5.4 6.0
2017-Feb-20 09:50 250 9 5.4 6.0
2017-Feb-20 09:20 250 9 5.4 6.0
2017-Feb-20 08:50 260 9 5.4 6.0
2017-Feb-20 08:20 260 13 5.4 6.0 Light drizzle.
2017-Feb-20 07:50 250 12 5.4 6.0 Light drizzle.
2017-Feb-20 07:20 250 11 4.3 6.0 Light drizzle.
2017-Feb-20 06:50 250 9 4.3 6.0
2017-Feb-20 06:20 250 8 5.4 6.0